Location: East Irvine
(33.6759°N, 117.7598°W)
Time: 00:15:48
(UTC+00:00)

SJ 16-02 - Pass Details

Date: 15 November 2025
Orbit: 585 x 594 km, 75.0° (Epoch: 07 December)

Event Time Altitude Azimuth Distance (km) Brightness Sun altitude
Rises 01:42:52 0° 169° (S) 2,818 4.8 -11.6°
Reaches altitude 10° 01:45:19 10° 158° (SSE) 1,921 3.8 -12.1°
Maximum altitude 01:48:57 28° 99° (E) 1,139 2.2 -12.8°
Enters shadow 01:51:01 19° 57° (ENE) 1,440 2.7 -13.2°
